Location: Columbia
(38.9520°N, 92.3340°W)
Time: 20:18:18
(UTC-05:00)

Cosmos 1633 - Visible Passes

Search period start: 30 July 2014 00:00
Search period end: 09 August 2014 00:00
Orbit: 498 x 520 km, 82.5° (Epoch: 30 July)

Date Brightness Start Highest point End Pass type
(mag) Time Alt. Az. Time Alt. Az. Time Alt. Az.
30 Jul 5.6 01:07:46 14° NW 01:07:46 14° NW 01:08:39 10° NNW visible
31 Jul 5.5 00:50:41 17° NNW 00:50:41 17° NNW 00:51:49 10° NNW visible
01 Aug 5.4 00:33:36 19° NNW 00:33:36 19° NNW 00:34:53 10° N visible
02 Aug 5.2 00:16:29 21° NNW 00:16:29 21° NNW 00:17:53 10° N visible
02 Aug 5.1 23:59:21 22° N 23:59:21 22° N 00:00:50 10° N visible
03 Aug 4.9 23:42:11 23° N 23:42:11 23° N 23:43:44 10° N visible
04 Aug 4.8 23:25:00 23° NNE 23:25:00 23° NNE 23:26:34 10° NNE visible
05 Aug 4.7 23:07:48 22° NNE 23:07:48 22° NNE 23:09:21 10° NNE visible
06 Aug 4.7 22:50:35 21° NE 22:50:35 21° NE 22:52:05 10° NNE visible
07 Aug 5.8 00:25:26 11° NW 00:25:26 11° NW 00:25:52 10° NW visible
07 Aug 4.7 22:33:19 19° NE 22:33:19 19° NE 22:34:44 10° NNE visible
08 Aug 5.6 00:08:10 14° NW 00:08:10 14° NW 00:09:22 10° NW visible
08 Aug 4.8 22:16:02 17° NE 22:16:02 17° NE 22:17:19 10° NE visible
08 Aug 5.4 23:50:53 18° NW 23:50:53 18° NW 23:52:38 10° NNW visible
